Showing default

GSAT 6, 40880

Orbit data source: Space-Track

GSAT 6, 40880 is a payload satellite owned by ISRO (IN) in GEO that was launched on Thu, 27 Aug 2015 UTC via a GSLV MK II launch vehicle from the Sirharikota (SRI). Payloads include a variety of satellites, spacecraft, and rockets equipped with specific instruments for various scientific and technological missions. These include communications satellites like Starlink; space stations such as the ISS; scientific satellites like the Hubble; Earth observation satellites from companies like Planet Labs, Umbra, and HawkEye 360; GPS; miniature CubeSats for education and research; and military/defense satellites.

Not visible in the next 10 days
GSAT 6 details
Identifier
40880, 2015-041A
Orbit
GEO
Last TLE update2 days ago
Origin
Flag of INISRO (IN / IND)
ManufacturerISRO SAC/Banga
MissionOperational Defense Communications
Bus & MotorI2K, ISRO LAM
Mass2,217 kg wet, 985 kg dry
Launch date (UTC)
2015-08-27 (9 years ago)
Launch vehicle
GSLV MK II
Launch site
Sirharikota (SRI)
Object type
Payload
Rocket body
Debris
Shape & HBRBox + 2 Pan, 9.5 m
Radar Cross Section13.236 m², Large (>1 m²)

Expand to show TLE details & history

TLE from 2 days ago
0 GSAT 6
1 40880U 15041A   24359.68797265 -.00000136  00000-0  00000-0 0  9995
2 40880   0.5211  90.4261 0003194 180.3941 153.0251  1.00272847 34180
Epoch: 2024-12-24T16:30Z
Definitive object data (Epoch: 2024-12-24T16:30:40.836Z)
Latitude-0.21442°
Longitude82.49551°
Altitude35,797.871 km
Speed3.074 km/s
True Right ascension04h 15m 25s
True Declination0° 12' 51"
Sunlit
Object was in daylight at TLE epoch
Visualization TLE readout
Latitude-0.26673°
Longitude75.99444°
Altitude35,797.184 km
Speed3.074 km/s
Apparent Right ascension03h 46m 15s
Apparent Declination-5° 11' 01"
Sunlit
Object is in daylight
Visualization observer readout
Local Sidereal Time15:18:56
Azimuth348.164° N
Elevation-54.726°
Doppler factor1
Orbital elements
Apogee altitude35,800.835 km
Perigee altitude35,773.9 km
Semi-major axis42,165.505 km
Eccentricity0.0003194
Inclination0.5211°
RAAN90.4261°
Arg. of periapsis180.3941°
True anomaly153.0417°
Mean anomaly153.0251°
Eccentric anomaly153.0334°
Mean motion0.25067 °/min
BSTARUnknown
Orbital period1436.14 mins
Loading historical data...
40880 neighbors
Authenticating...
Loading maneuver chart data...
Loading historical data...
Loading historical data...
Loading historical data...
Loading historical data...
Loading historical data...
Loading historical data...
Loading historical data...
Other satellites on launch #41 in the year 2015 (2015-08-27 UTC)

GSAT 6 Visibility forecast

Observer location: undefined°, undefined

GSAT 6 is not visible in the next 10 days
Span
Click to sort rows by Start time (UTC) header in descending order
Start Az.
Max El. time (UTC)
Max El. Az.
Max El.
End time (UTC)
End Az.
|